Year,Month,Day,Hour,Minute,Value (Times are PST for windgust in km/hr)
2017,10,02,00,00,4.80
2017,10,02,00,01,1.60
2017,10,02,00,02,1.60
2017,10,02,00,03,1.60
2017,10,02,00,04,1.60
2017,10,02,00,05,1.60
2017,10,02,00,06,1.60
2017,10,02,00,07,1.60
2017,10,02,00,08,1.60
2017,10,02,00,09,1.60
2017,10,02,00,10,1.60
2017,10,02,00,38,3.20
2017,10,02,00,39,4.80
2017,10,02,00,40,3.20
2017,10,02,00,41,3.20
2017,10,02,00,42,3.20
2017,10,02,00,43,3.20
2017,10,02,00,44,3.20
2017,10,02,00,45,4.80
2017,10,02,00,46,3.20
2017,10,02,00,47,3.20
2017,10,02,00,48,4.80
2017,10,02,00,49,4.80
2017,10,02,00,50,4.80
2017,10,02,00,51,4.80
2017,10,02,00,52,6.40
2017,10,02,00,53,4.80
2017,10,02,00,54,4.80
2017,10,02,00,55,3.20
2017,10,02,00,56,4.80
2017,10,02,00,57,4.80
2017,10,02,00,58,1.60
2017,10,02,01,01,1.60
2017,10,02,01,02,1.60
2017,10,02,01,03,1.60
2017,10,02,01,04,1.60
2017,10,02,01,17,1.60
2017,10,02,01,18,3.20
2017,10,02,01,19,3.20
2017,10,02,01,20,1.60
2017,10,02,01,21,1.60
2017,10,02,01,22,3.20
2017,10,02,01,23,3.20
2017,10,02,01,24,1.60
2017,10,02,01,25,1.60
2017,10,02,01,26,3.20
2017,10,02,01,27,4.80
2017,10,02,01,28,4.80
2017,10,02,01,29,4.80
2017,10,02,01,30,3.20
2017,10,02,01,31,3.20
2017,10,02,01,33,3.20
2017,10,02,01,34,3.20
2017,10,02,01,35,3.20
2017,10,02,01,36,3.20
2017,10,02,01,37,1.60
2017,10,02,01,39,3.20
2017,10,02,01,40,4.80
2017,10,02,01,41,3.20
2017,10,02,01,44,3.20
2017,10,02,01,45,4.80
2017,10,02,01,46,6.40
2017,10,02,01,47,4.80
2017,10,02,01,48,4.80
2017,10,02,01,49,4.80
2017,10,02,01,50,4.80
2017,10,02,01,51,4.80
2017,10,02,01,52,6.40
2017,10,02,01,53,4.80
2017,10,02,01,54,3.20
2017,10,02,01,57,4.80
2017,10,02,01,58,4.80
2017,10,02,01,59,3.20
2017,10,02,02,00,4.80
2017,10,02,02,01,3.20
2017,10,02,02,02,1.60
2017,10,02,02,03,1.60
2017,10,02,02,08,1.60
2017,10,02,02,09,1.60
2017,10,02,02,10,1.60
2017,10,02,02,11,4.80
2017,10,02,02,12,4.80
2017,10,02,02,13,4.80
2017,10,02,02,14,4.80
2017,10,02,02,15,4.80
2017,10,02,02,16,4.80
2017,10,02,02,17,3.20
2017,10,02,02,18,6.40
2017,10,02,02,19,4.80
2017,10,02,02,20,4.80
2017,10,02,02,21,4.80
2017,10,02,02,22,3.20
2017,10,02,02,23,1.60
2017,10,02,02,24,1.60
2017,10,02,02,33,3.20
2017,10,02,02,34,3.20
2017,10,02,02,35,3.20
2017,10,02,02,36,3.20
2017,10,02,02,37,6.40
2017,10,02,02,38,6.40
2017,10,02,02,39,4.80
2017,10,02,02,40,1.60
2017,10,02,02,43,1.60
2017,10,02,02,44,1.60
2017,10,02,02,45,4.80
2017,10,02,02,46,4.80
2017,10,02,02,47,8.10
2017,10,02,02,48,8.10
2017,10,02,02,49,6.40
2017,10,02,02,50,4.80
2017,10,02,02,51,4.80
2017,10,02,02,52,3.20
2017,10,02,02,53,1.60
2017,10,02,02,54,1.60
2017,10,02,02,55,1.60
2017,10,02,02,56,1.60
2017,10,02,02,57,1.60
2017,10,02,03,05,1.60
2017,10,02,03,07,4.80
2017,10,02,03,08,4.80
2017,10,02,03,09,4.80
2017,10,02,03,10,3.20
2017,10,02,03,11,3.20
2017,10,02,03,12,1.60
2017,10,02,03,13,1.60
2017,10,02,03,14,1.60
2017,10,02,03,44,1.60
2017,10,02,03,45,1.60
2017,10,02,03,46,1.60
2017,10,02,03,47,3.20
2017,10,02,03,48,3.20
2017,10,02,03,49,1.60
2017,10,02,03,50,1.60
2017,10,02,03,55,1.60
2017,10,02,03,56,1.60
2017,10,02,03,57,3.20
2017,10,02,03,58,3.20
2017,10,02,03,59,3.20
2017,10,02,04,00,1.60
2017,10,02,04,01,1.60
2017,10,02,04,25,4.80
2017,10,02,04,26,1.60
2017,10,02,04,27,3.20
2017,10,02,04,28,1.60
2017,10,02,04,29,1.60
2017,10,02,04,30,1.60
2017,10,02,04,32,3.20
2017,10,02,04,33,1.60
2017,10,02,04,35,1.60
2017,10,02,04,41,1.60
2017,10,02,04,42,1.60
2017,10,02,04,45,3.20
2017,10,02,04,46,3.20
2017,10,02,04,47,4.80
2017,10,02,04,48,3.20
2017,10,02,04,49,3.20
2017,10,02,04,50,3.20
2017,10,02,04,51,4.80
2017,10,02,04,52,1.60
2017,10,02,04,53,1.60
2017,10,02,04,54,1.60
2017,10,02,04,55,1.60
2017,10,02,04,57,3.20
2017,10,02,04,59,3.20
2017,10,02,05,00,3.20
2017,10,02,05,02,1.60
2017,10,02,05,03,4.80
2017,10,02,05,04,3.20
2017,10,02,05,05,3.20
2017,10,02,05,06,4.80
2017,10,02,05,07,3.20
2017,10,02,05,08,4.80
2017,10,02,05,09,6.40
2017,10,02,05,10,4.80
2017,10,02,05,11,6.40
2017,10,02,05,12,8.10
2017,10,02,05,13,8.10
2017,10,02,05,14,8.10
2017,10,02,05,15,8.10
2017,10,02,05,16,8.10
2017,10,02,05,17,8.10
2017,10,02,05,18,8.10
2017,10,02,05,19,6.40
2017,10,02,05,20,6.40
2017,10,02,05,21,6.40
2017,10,02,05,22,4.80
2017,10,02,05,23,6.40
2017,10,02,05,24,4.80
2017,10,02,05,25,4.80
2017,10,02,05,26,4.80
2017,10,02,05,27,4.80
2017,10,02,05,28,4.80
2017,10,02,05,29,3.20
2017,10,02,05,30,3.20
2017,10,02,05,31,3.20
2017,10,02,05,32,1.60
2017,10,02,05,34,4.80
2017,10,02,05,35,4.80
2017,10,02,05,36,4.80
2017,10,02,05,37,6.40
2017,10,02,05,38,4.80
2017,10,02,05,39,4.80
2017,10,02,05,40,4.80
2017,10,02,05,41,3.20
2017,10,02,05,42,3.20
2017,10,02,05,43,3.20
2017,10,02,05,44,4.80
2017,10,02,05,45,6.40
2017,10,02,05,46,4.80
2017,10,02,05,47,4.80
2017,10,02,05,48,6.40
2017,10,02,05,49,6.40
2017,10,02,05,50,6.40
2017,10,02,05,51,6.40
2017,10,02,05,52,4.80
2017,10,02,05,53,4.80
2017,10,02,05,54,1.60
2017,10,02,05,56,1.60
2017,10,02,05,57,1.60
2017,10,02,05,58,1.60
2017,10,02,05,59,4.80
2017,10,02,06,00,4.80
2017,10,02,06,01,4.80
2017,10,02,06,02,4.80
2017,10,02,06,03,6.40
2017,10,02,06,04,3.20
2017,10,02,06,05,3.20
2017,10,02,06,06,1.60
2017,10,02,06,07,3.20
2017,10,02,06,08,3.20
2017,10,02,06,09,3.20
2017,10,02,06,10,4.80
2017,10,02,06,11,4.80
2017,10,02,06,12,6.40
2017,10,02,06,13,4.80
2017,10,02,06,14,4.80
2017,10,02,06,15,6.40
2017,10,02,06,16,6.40
2017,10,02,06,17,6.40
2017,10,02,06,18,4.80
2017,10,02,06,19,6.40
2017,10,02,06,20,6.40
2017,10,02,06,21,6.40
2017,10,02,06,22,6.40
2017,10,02,06,23,4.80
2017,10,02,06,24,4.80
2017,10,02,06,25,6.40
2017,10,02,06,26,4.80
2017,10,02,06,27,6.40
2017,10,02,06,28,4.80
2017,10,02,06,29,3.20
2017,10,02,06,30,3.20
2017,10,02,06,31,6.40
2017,10,02,06,32,8.10
2017,10,02,06,33,4.80
2017,10,02,06,34,4.80
2017,10,02,06,35,3.20
2017,10,02,06,36,3.20
2017,10,02,06,37,3.20
2017,10,02,06,38,4.80
2017,10,02,06,39,3.20
2017,10,02,06,40,4.80
2017,10,02,06,41,6.40
2017,10,02,06,42,4.80
2017,10,02,06,43,6.40
2017,10,02,06,44,6.40
2017,10,02,06,45,4.80
2017,10,02,06,46,4.80
2017,10,02,06,47,3.20
2017,10,02,06,48,4.80
2017,10,02,06,49,4.80
2017,10,02,06,50,4.80
2017,10,02,06,51,6.40
2017,10,02,06,52,4.80
2017,10,02,06,53,6.40
2017,10,02,06,54,4.80
2017,10,02,06,55,4.80
2017,10,02,06,56,4.80
2017,10,02,06,57,6.40
2017,10,02,06,58,4.80
2017,10,02,06,59,4.80
2017,10,02,07,00,6.40
2017,10,02,07,01,4.80
2017,10,02,07,02,4.80
2017,10,02,07,03,4.80
2017,10,02,07,04,4.80
2017,10,02,07,05,4.80
2017,10,02,07,06,4.80
2017,10,02,07,07,6.40
2017,10,02,07,08,6.40
2017,10,02,07,09,4.80
2017,10,02,07,10,4.80
2017,10,02,07,11,6.40
2017,10,02,07,12,4.80
2017,10,02,07,13,6.40
2017,10,02,07,14,6.40
2017,10,02,07,15,6.40
2017,10,02,07,16,8.10
2017,10,02,07,17,4.80
2017,10,02,07,18,6.40
2017,10,02,07,19,8.10
2017,10,02,07,20,8.10
2017,10,02,07,21,8.10
2017,10,02,07,22,9.60
2017,10,02,07,23,8.10
2017,10,02,07,24,8.10
2017,10,02,07,25,6.40
2017,10,02,07,26,8.10
2017,10,02,07,27,9.60
2017,10,02,07,28,8.10
2017,10,02,07,29,8.10
2017,10,02,07,30,8.10
2017,10,02,07,31,8.10
2017,10,02,07,32,8.10
2017,10,02,07,33,8.10
2017,10,02,07,34,6.40
2017,10,02,07,35,8.10
2017,10,02,07,36,8.10
2017,10,02,07,37,8.10
2017,10,02,07,38,8.10
2017,10,02,07,39,8.10
2017,10,02,07,40,8.10
2017,10,02,07,41,8.10
2017,10,02,07,42,8.10
2017,10,02,07,43,6.40
2017,10,02,07,44,6.40
2017,10,02,07,45,6.40
2017,10,02,07,46,6.40
2017,10,02,07,47,4.80
2017,10,02,07,48,6.40
2017,10,02,07,49,8.10
2017,10,02,07,50,4.80
2017,10,02,07,51,4.80
2017,10,02,07,52,4.80
2017,10,02,07,53,8.10
2017,10,02,07,54,6.40
2017,10,02,07,55,6.40
2017,10,02,07,56,4.80
2017,10,02,07,57,6.40
2017,10,02,07,58,4.80
2017,10,02,07,59,4.80
2017,10,02,08,00,8.10
2017,10,02,08,01,4.80
2017,10,02,08,02,8.10
2017,10,02,08,03,8.10
2017,10,02,08,04,8.10
2017,10,02,08,05,9.60
2017,10,02,08,06,8.10
2017,10,02,08,07,9.60
2017,10,02,08,08,8.10
2017,10,02,08,09,9.60
2017,10,02,08,10,8.10
2017,10,02,08,11,6.40
2017,10,02,08,12,8.10
2017,10,02,08,13,6.40
2017,10,02,08,14,8.10
2017,10,02,08,15,6.40
2017,10,02,08,16,6.40
2017,10,02,08,17,6.40
2017,10,02,08,18,6.40
2017,10,02,08,19,4.80
2017,10,02,08,20,4.80
2017,10,02,08,21,6.40
2017,10,02,08,22,4.80
2017,10,02,08,23,4.80
2017,10,02,08,24,4.80
2017,10,02,08,25,6.40
2017,10,02,08,26,8.10
2017,10,02,08,27,4.80
2017,10,02,08,28,3.20
2017,10,02,08,29,4.80
2017,10,02,08,30,6.40
2017,10,02,08,31,4.80
2017,10,02,08,32,6.40
2017,10,02,08,33,6.40
2017,10,02,08,34,4.80
2017,10,02,08,35,3.20
2017,10,02,08,36,1.60
2017,10,02,08,37,3.20
2017,10,02,08,38,3.20
2017,10,02,08,39,3.20
2017,10,02,08,40,1.60
2017,10,02,08,41,1.60
2017,10,02,08,43,1.60
2017,10,02,08,44,4.80
2017,10,02,08,45,4.80
2017,10,02,08,46,4.80
2017,10,02,08,47,4.80
2017,10,02,08,48,1.60
2017,10,02,08,52,1.60
2017,10,02,08,53,1.60
2017,10,02,08,54,4.80
2017,10,02,08,55,4.80
2017,10,02,08,56,4.80
2017,10,02,08,57,1.60
2017,10,02,08,58,3.20
2017,10,02,08,59,3.20
2017,10,02,09,00,3.20
2017,10,02,09,01,3.20
2017,10,02,09,02,1.60
2017,10,02,09,03,8.10
2017,10,02,09,04,8.10
2017,10,02,09,05,6.40
2017,10,02,09,06,8.10
2017,10,02,09,07,8.10
2017,10,02,09,08,6.40
2017,10,02,09,09,4.80
2017,10,02,09,10,8.10
2017,10,02,09,11,8.10
2017,10,02,09,12,6.40
2017,10,02,09,13,6.40
2017,10,02,09,14,8.10
2017,10,02,09,15,11.30
2017,10,02,09,16,8.10
2017,10,02,09,17,9.60
2017,10,02,09,18,11.30
2017,10,02,09,19,6.40
2017,10,02,09,20,4.80
2017,10,02,09,21,4.80
2017,10,02,09,22,4.80
2017,10,02,09,23,4.80
2017,10,02,09,24,6.40
2017,10,02,09,25,14.50
2017,10,02,09,26,8.10
2017,10,02,09,27,16.10
2017,10,02,09,28,16.10
2017,10,02,09,29,16.10
2017,10,02,09,30,16.10
2017,10,02,09,31,16.10
2017,10,02,09,32,16.10
2017,10,02,09,33,16.10
2017,10,02,09,34,17.70
2017,10,02,09,35,14.50
2017,10,02,09,36,9.60
2017,10,02,09,37,14.50
2017,10,02,09,38,9.60
2017,10,02,09,39,12.90
2017,10,02,09,40,14.50
2017,10,02,09,41,14.50
2017,10,02,09,42,9.60
2017,10,02,09,43,12.90
2017,10,02,09,44,14.50
2017,10,02,09,45,12.90
2017,10,02,09,46,14.50
2017,10,02,09,47,12.90
2017,10,02,09,48,17.70
2017,10,02,09,49,16.10
2017,10,02,09,50,9.60
2017,10,02,09,51,14.50
2017,10,02,09,52,16.10
2017,10,02,09,53,16.10
2017,10,02,09,54,9.60
2017,10,02,09,55,8.10
2017,10,02,09,56,6.40
2017,10,02,09,57,12.90
2017,10,02,09,58,12.90
2017,10,02,09,59,8.10
2017,10,02,10,00,8.10
2017,10,02,10,01,12.90
2017,10,02,10,02,12.90
2017,10,02,10,03,12.90
2017,10,02,10,04,14.50
2017,10,02,10,05,12.90
2017,10,02,10,06,12.90
2017,10,02,10,07,12.90
2017,10,02,10,08,12.90
2017,10,02,10,09,16.10
2017,10,02,10,10,14.50
2017,10,02,10,11,12.90
2017,10,02,10,12,16.10
2017,10,02,10,13,14.50
2017,10,02,10,14,14.50
2017,10,02,10,15,8.10
2017,10,02,10,16,12.90
2017,10,02,10,17,16.10
2017,10,02,10,18,12.90
2017,10,02,10,19,12.90
2017,10,02,10,20,12.90
2017,10,02,10,21,14.50
2017,10,02,10,22,16.10
2017,10,02,10,23,14.50
2017,10,02,10,24,9.60
2017,10,02,10,25,8.10
2017,10,02,10,26,12.90
2017,10,02,10,27,16.10
2017,10,02,10,28,12.90
2017,10,02,10,29,9.60
2017,10,02,10,30,12.90
2017,10,02,10,31,16.10
2017,10,02,10,32,12.90
2017,10,02,10,33,16.10
2017,10,02,10,34,14.50
2017,10,02,10,35,9.60
2017,10,02,10,36,14.50
2017,10,02,10,37,14.50
2017,10,02,10,38,9.60
2017,10,02,10,39,8.10
2017,10,02,10,40,14.50
2017,10,02,10,41,12.90
2017,10,02,10,42,9.60
2017,10,02,10,43,16.10
2017,10,02,10,44,16.10
2017,10,02,10,45,12.90
2017,10,02,10,46,14.50
2017,10,02,10,47,9.60
2017,10,02,10,48,9.60
2017,10,02,10,49,12.90
2017,10,02,10,50,16.10
2017,10,02,10,51,12.90
2017,10,02,10,52,14.50
2017,10,02,10,53,16.10
2017,10,02,10,54,14.50
2017,10,02,10,55,12.90
2017,10,02,10,56,14.50
2017,10,02,10,57,11.30
2017,10,02,10,58,17.70
2017,10,02,10,59,17.70
2017,10,02,11,00,14.50
2017,10,02,11,01,14.50
2017,10,02,11,02,12.90
2017,10,02,11,03,14.50
2017,10,02,11,04,16.10
2017,10,02,11,05,12.90
2017,10,02,11,06,14.50
2017,10,02,11,07,14.50
2017,10,02,11,08,16.10
2017,10,02,11,09,12.90
2017,10,02,11,10,8.10
2017,10,02,11,11,12.90
2017,10,02,11,12,14.50
2017,10,02,11,13,9.60
2017,10,02,11,14,6.40
2017,10,02,11,15,9.60
2017,10,02,11,16,12.90
2017,10,02,11,17,6.40
2017,10,02,11,18,6.40
2017,10,02,11,19,6.40
2017,10,02,11,20,11.30
2017,10,02,11,21,19.30
2017,10,02,11,22,17.70
2017,10,02,11,23,12.90
2017,10,02,11,24,19.30
2017,10,02,11,25,20.90
2017,10,02,11,26,24.20
2017,10,02,11,27,19.30
2017,10,02,11,28,20.90
2017,10,02,11,29,6.40
2017,10,02,11,30,6.40
2017,10,02,11,31,9.60
2017,10,02,11,32,6.40
2017,10,02,11,33,8.10
2017,10,02,11,34,8.10
2017,10,02,11,35,8.10
2017,10,02,11,36,12.90
2017,10,02,11,37,9.60
2017,10,02,11,38,6.40
2017,10,02,11,39,8.10
2017,10,02,11,40,8.10
2017,10,02,11,41,9.60
2017,10,02,11,42,9.60
2017,10,02,11,43,8.10
2017,10,02,11,44,4.80
2017,10,02,11,45,19.30
2017,10,02,11,46,11.30
2017,10,02,11,47,12.90
2017,10,02,11,48,6.40
2017,10,02,11,49,9.60
2017,10,02,11,50,12.90
2017,10,02,11,51,25.70
2017,10,02,11,52,20.90
2017,10,02,11,53,17.70
2017,10,02,11,54,16.10
2017,10,02,11,55,19.30
2017,10,02,11,56,12.90
2017,10,02,11,57,17.70
2017,10,02,11,58,19.30
2017,10,02,11,59,22.50
2017,10,02,12,00,20.90
2017,10,02,12,01,16.10
2017,10,02,12,02,16.10
2017,10,02,12,03,14.50
2017,10,02,12,04,17.70
2017,10,02,12,05,20.90
2017,10,02,12,06,20.90
2017,10,02,12,07,19.30
2017,10,02,12,08,14.50
2017,10,02,12,09,12.90
2017,10,02,12,10,8.10
2017,10,02,12,11,9.60
2017,10,02,12,12,14.50
2017,10,02,12,13,17.70
2017,10,02,12,14,14.50
2017,10,02,12,15,20.90
2017,10,02,12,16,22.50
2017,10,02,12,17,19.30
2017,10,02,12,18,14.50
2017,10,02,12,19,12.90
2017,10,02,12,20,14.50
2017,10,02,12,21,19.30
2017,10,02,12,22,17.70
2017,10,02,12,23,19.30
2017,10,02,12,24,22.50
2017,10,02,12,25,12.90
2017,10,02,12,26,6.40
2017,10,02,12,27,12.90
2017,10,02,12,28,19.30
2017,10,02,12,29,19.30
2017,10,02,12,30,19.30
2017,10,02,12,31,16.10
2017,10,02,12,32,12.90
2017,10,02,12,33,9.60
2017,10,02,12,34,25.70
2017,10,02,12,35,25.70
2017,10,02,12,36,17.70
2017,10,02,12,37,16.10
2017,10,02,12,38,14.50
2017,10,02,12,39,14.50
2017,10,02,12,40,16.10
2017,10,02,12,41,24.20
2017,10,02,12,42,22.50
2017,10,02,12,43,22.50
2017,10,02,12,44,19.30
2017,10,02,12,45,16.10
2017,10,02,12,46,16.10
2017,10,02,12,47,24.20
2017,10,02,12,48,20.90
2017,10,02,12,49,14.50
2017,10,02,12,50,17.70
2017,10,02,12,51,20.90
2017,10,02,12,52,19.30
2017,10,02,12,53,25.70
2017,10,02,12,54,17.70
2017,10,02,12,55,17.70
2017,10,02,12,56,14.50
2017,10,02,12,57,17.70
2017,10,02,12,58,16.10
2017,10,02,12,59,17.70
2017,10,02,13,00,20.90
2017,10,02,13,01,24.20
2017,10,02,13,02,22.50
2017,10,02,13,03,16.10
2017,10,02,13,04,17.70
2017,10,02,13,05,14.50
2017,10,02,13,06,19.30
2017,10,02,13,07,19.30
2017,10,02,13,08,19.30
2017,10,02,13,09,19.30
2017,10,02,13,10,22.50
2017,10,02,13,11,19.30
2017,10,02,13,12,22.50
2017,10,02,13,13,16.10
2017,10,02,13,14,14.50
2017,10,02,13,15,14.50
2017,10,02,13,16,17.70
2017,10,02,13,17,19.30
2017,10,02,13,18,19.30
2017,10,02,13,19,14.50
2017,10,02,13,20,24.20
2017,10,02,13,21,20.90
2017,10,02,13,22,17.70
2017,10,02,13,23,22.50
2017,10,02,13,24,17.70
2017,10,02,13,25,16.10
2017,10,02,13,26,14.50
2017,10,02,13,27,20.90
2017,10,02,13,28,20.90
2017,10,02,13,29,16.10
2017,10,02,13,30,14.50
2017,10,02,13,31,17.70
2017,10,02,13,32,22.50
2017,10,02,13,33,20.90
2017,10,02,13,34,20.90
2017,10,02,13,35,22.50
2017,10,02,13,36,25.70
2017,10,02,13,37,20.90
2017,10,02,13,38,16.10
2017,10,02,13,39,16.10
2017,10,02,13,40,17.70
2017,10,02,13,41,16.10
2017,10,02,13,42,17.70
2017,10,02,13,43,22.50
2017,10,02,13,44,19.30
2017,10,02,13,45,12.90
2017,10,02,13,46,8.10
2017,10,02,13,47,20.90
2017,10,02,13,48,24.20
2017,10,02,13,49,22.50
2017,10,02,13,50,19.30
2017,10,02,13,51,25.70
2017,10,02,13,52,20.90
2017,10,02,13,53,17.70
2017,10,02,13,54,24.20
2017,10,02,13,55,24.20
2017,10,02,13,56,24.20
2017,10,02,13,57,22.50
2017,10,02,13,58,20.90
2017,10,02,13,59,14.50
2017,10,02,14,00,20.90
2017,10,02,14,01,24.20
2017,10,02,14,02,17.70
2017,10,02,14,03,17.70
2017,10,02,14,04,24.20
2017,10,02,14,05,19.30
2017,10,02,14,06,24.20
2017,10,02,14,07,22.50
2017,10,02,14,08,20.90
2017,10,02,14,09,17.70
2017,10,02,14,10,25.70
2017,10,02,14,11,22.50
2017,10,02,14,12,22.50
2017,10,02,14,13,17.70
2017,10,02,14,14,20.90
2017,10,02,14,15,17.70
2017,10,02,14,16,20.90
2017,10,02,14,17,12.90
2017,10,02,14,18,17.70
2017,10,02,14,19,17.70
2017,10,02,14,20,22.50
2017,10,02,14,21,20.90
2017,10,02,14,22,22.50
2017,10,02,14,23,19.30
2017,10,02,14,24,19.30
2017,10,02,14,25,19.30
2017,10,02,14,26,17.70
2017,10,02,14,27,12.90
2017,10,02,14,28,17.70
2017,10,02,14,29,17.70
2017,10,02,14,30,20.90
2017,10,02,14,31,20.90
2017,10,02,14,32,14.50
2017,10,02,14,33,16.10
2017,10,02,14,34,17.70
2017,10,02,14,35,14.50
2017,10,02,14,36,16.10
2017,10,02,14,37,19.30
2017,10,02,14,38,17.70
2017,10,02,14,39,17.70
2017,10,02,14,40,16.10
2017,10,02,14,41,17.70
2017,10,02,14,42,19.30
2017,10,02,14,43,17.70
2017,10,02,14,44,14.50
2017,10,02,14,45,19.30
2017,10,02,14,46,17.70
2017,10,02,14,47,19.30
2017,10,02,14,48,17.70
2017,10,02,14,49,22.50
2017,10,02,14,50,22.50
2017,10,02,14,51,19.30
2017,10,02,14,52,20.90
2017,10,02,14,53,19.30
2017,10,02,14,54,20.90
2017,10,02,14,55,16.10
2017,10,02,14,56,17.70
2017,10,02,14,57,17.70
2017,10,02,14,58,20.90
2017,10,02,14,59,20.90
2017,10,02,15,00,17.70
2017,10,02,15,01,16.10
2017,10,02,15,02,17.70
2017,10,02,15,03,17.70
2017,10,02,15,04,14.50
2017,10,02,15,05,17.70
2017,10,02,15,06,12.90
2017,10,02,15,07,16.10
2017,10,02,15,08,16.10
2017,10,02,15,09,19.30
2017,10,02,15,10,19.30
2017,10,02,15,11,20.90
2017,10,02,15,12,17.70
2017,10,02,15,13,19.30
2017,10,02,15,14,20.90
2017,10,02,15,15,20.90
2017,10,02,15,16,20.90
2017,10,02,15,17,19.30
2017,10,02,15,18,20.90
2017,10,02,15,19,20.90
2017,10,02,15,20,19.30
2017,10,02,15,21,16.10
2017,10,02,15,22,14.50
2017,10,02,15,23,16.10
2017,10,02,15,24,19.30
2017,10,02,15,25,24.20
2017,10,02,15,26,22.50
2017,10,02,15,27,22.50
2017,10,02,15,28,20.90
2017,10,02,15,29,14.50
2017,10,02,15,30,16.10
2017,10,02,15,31,16.10
2017,10,02,15,32,17.70
2017,10,02,15,33,19.30
2017,10,02,15,34,17.70
2017,10,02,15,35,22.50
2017,10,02,15,36,20.90
2017,10,02,15,37,16.10
2017,10,02,15,38,19.30
2017,10,02,15,39,19.30
2017,10,02,15,40,20.90
2017,10,02,15,41,17.70
2017,10,02,15,42,16.10
2017,10,02,15,43,17.70
2017,10,02,15,44,22.50
2017,10,02,15,45,14.50
2017,10,02,15,46,16.10
2017,10,02,15,47,12.90
2017,10,02,15,48,9.60
2017,10,02,15,49,12.90
2017,10,02,15,50,8.10
2017,10,02,15,51,20.90
2017,10,02,15,52,17.70
2017,10,02,15,53,14.50
2017,10,02,15,54,14.50
2017,10,02,15,55,14.50
2017,10,02,15,56,17.70
2017,10,02,15,57,14.50
2017,10,02,15,58,16.10
2017,10,02,15,59,14.50
2017,10,02,16,00,20.90
2017,10,02,16,01,16.10
2017,10,02,16,02,14.50
2017,10,02,16,03,14.50
2017,10,02,16,04,14.50
2017,10,02,16,05,19.30
2017,10,02,16,06,19.30
2017,10,02,16,07,20.90
2017,10,02,16,08,12.90
2017,10,02,16,09,11.30
2017,10,02,16,10,16.10
2017,10,02,16,11,19.30
2017,10,02,16,12,12.90
2017,10,02,16,13,24.20
2017,10,02,16,14,17.70
2017,10,02,16,15,16.10
2017,10,02,16,16,16.10
2017,10,02,16,17,12.90
2017,10,02,16,18,3.20
2017,10,02,16,19,4.80
2017,10,02,16,20,4.80
2017,10,02,16,21,12.90
2017,10,02,16,22,8.10
2017,10,02,16,23,16.10
2017,10,02,16,24,16.10
2017,10,02,16,25,12.90
2017,10,02,16,26,19.30
2017,10,02,16,27,17.70
2017,10,02,16,28,12.90
2017,10,02,16,29,16.10
2017,10,02,16,30,17.70
2017,10,02,16,31,16.10
2017,10,02,16,32,19.30
2017,10,02,16,33,14.50
2017,10,02,16,34,6.40
2017,10,02,16,35,4.80
2017,10,02,16,36,8.10
2017,10,02,16,37,14.50
2017,10,02,16,38,19.30
2017,10,02,16,39,14.50
2017,10,02,16,40,11.30
2017,10,02,16,41,12.90
2017,10,02,16,42,12.90
2017,10,02,16,43,12.90
2017,10,02,16,44,12.90
2017,10,02,16,45,9.60
2017,10,02,16,46,9.60
2017,10,02,16,47,12.90
2017,10,02,16,48,11.30
2017,10,02,16,49,17.70
2017,10,02,16,50,22.50
2017,10,02,16,51,19.30
2017,10,02,16,52,12.90
2017,10,02,16,53,16.10
2017,10,02,16,54,16.10
2017,10,02,16,55,8.10
2017,10,02,16,56,12.90
2017,10,02,16,57,11.30
2017,10,02,16,58,8.10
2017,10,02,16,59,6.40
2017,10,02,17,00,8.10
2017,10,02,17,01,14.50
2017,10,02,17,02,12.90
2017,10,02,17,03,12.90
2017,10,02,17,04,12.90
2017,10,02,17,05,12.90
2017,10,02,17,06,9.60
2017,10,02,17,07,6.40
2017,10,02,17,08,8.10
2017,10,02,17,09,9.60
2017,10,02,17,10,14.50
2017,10,02,17,11,12.90
2017,10,02,17,12,14.50
2017,10,02,17,13,14.50
2017,10,02,17,14,14.50
2017,10,02,17,15,12.90
2017,10,02,17,16,11.30
2017,10,02,17,17,11.30
2017,10,02,17,18,12.90
2017,10,02,17,19,12.90
2017,10,02,17,20,12.90
2017,10,02,17,21,12.90
2017,10,02,17,22,14.50
2017,10,02,17,23,14.50
2017,10,02,17,24,14.50
2017,10,02,17,25,11.30
2017,10,02,17,26,14.50
2017,10,02,17,27,16.10
2017,10,02,17,28,14.50
2017,10,02,17,29,12.90
2017,10,02,17,30,11.30
2017,10,02,17,31,8.10
2017,10,02,17,32,11.30
2017,10,02,17,33,8.10
2017,10,02,17,34,9.60
2017,10,02,17,35,14.50
2017,10,02,17,36,12.90
2017,10,02,17,37,11.30
2017,10,02,17,38,11.30
2017,10,02,17,39,11.30
2017,10,02,17,40,11.30
2017,10,02,17,41,9.60
2017,10,02,17,42,12.90
2017,10,02,17,43,14.50
2017,10,02,17,44,12.90
2017,10,02,17,45,12.90
2017,10,02,17,46,11.30
2017,10,02,17,47,11.30
2017,10,02,17,48,11.30
2017,10,02,17,49,9.60
2017,10,02,17,50,9.60
2017,10,02,17,51,8.10
2017,10,02,17,52,11.30
2017,10,02,17,53,9.60
2017,10,02,17,54,8.10
2017,10,02,17,55,9.60
2017,10,02,17,56,11.30
2017,10,02,17,57,12.90
2017,10,02,17,58,11.30
2017,10,02,17,59,11.30
2017,10,02,18,00,9.60
2017,10,02,18,01,11.30
2017,10,02,18,02,9.60
2017,10,02,18,03,6.40
2017,10,02,18,04,8.10
2017,10,02,18,05,8.10
2017,10,02,18,06,9.60
2017,10,02,18,07,9.60
2017,10,02,18,08,6.40
2017,10,02,18,09,4.80
2017,10,02,18,10,6.40
2017,10,02,18,11,4.80
2017,10,02,18,12,6.40
2017,10,02,18,13,6.40
2017,10,02,18,14,4.80
2017,10,02,18,15,4.80
2017,10,02,18,16,4.80
2017,10,02,18,17,3.20
2017,10,02,18,18,4.80
2017,10,02,18,19,4.80
2017,10,02,18,20,6.40
2017,10,02,18,21,4.80
2017,10,02,18,22,4.80
2017,10,02,18,23,4.80
2017,10,02,18,24,4.80
2017,10,02,18,25,1.60
2017,10,02,18,26,3.20
2017,10,02,18,27,3.20
2017,10,02,18,28,1.60
2017,10,02,18,37,1.60
2017,10,02,18,38,3.20
2017,10,02,18,39,1.60
2017,10,02,18,40,1.60
2017,10,02,18,45,3.20
2017,10,02,18,46,3.20
2017,10,02,18,47,1.60
2017,10,02,18,48,1.60
2017,10,02,18,52,1.60
2017,10,02,19,06,1.60
2017,10,02,19,10,1.60
2017,10,02,19,12,1.60
2017,10,02,19,13,1.60
2017,10,02,19,14,1.60
2017,10,02,19,15,1.60
2017,10,02,19,22,1.60
2017,10,02,19,23,1.60
2017,10,02,19,27,3.20
2017,10,02,19,28,3.20
2017,10,02,19,29,3.20
2017,10,02,19,30,1.60
2017,10,02,19,31,1.60
2017,10,02,19,32,1.60
2017,10,02,19,33,1.60
2017,10,02,19,40,4.80
2017,10,02,19,41,4.80
2017,10,02,19,42,4.80
2017,10,02,19,43,3.20
2017,10,02,19,47,3.20
2017,10,02,19,50,6.40
2017,10,02,19,51,4.80
2017,10,02,19,52,1.60
2017,10,02,19,56,3.20
2017,10,02,20,00,1.60
2017,10,02,20,04,1.60
2017,10,02,20,05,1.60
2017,10,02,20,10,1.60
2017,10,02,20,14,3.20
2017,10,02,20,15,4.80
2017,10,02,20,16,3.20
2017,10,02,20,17,3.20
2017,10,02,20,18,1.60
2017,10,02,20,20,4.80
2017,10,02,20,21,6.40
2017,10,02,20,22,3.20
2017,10,02,20,26,3.20
2017,10,02,20,27,4.80
2017,10,02,20,28,4.80
2017,10,02,20,29,3.20
2017,10,02,20,31,3.20
2017,10,02,20,32,1.60
2017,10,02,20,33,4.80
2017,10,02,20,34,4.80
2017,10,02,20,37,3.20
2017,10,02,20,38,3.20
2017,10,02,20,39,1.60
2017,10,02,20,40,3.20
2017,10,02,20,41,1.60
2017,10,02,20,42,1.60
2017,10,02,20,43,3.20
2017,10,02,20,44,3.20
2017,10,02,20,47,1.60
2017,10,02,20,48,3.20
2017,10,02,20,49,3.20
2017,10,02,20,50,4.80
2017,10,02,20,51,1.60
2017,10,02,20,56,1.60
2017,10,02,20,57,1.60
2017,10,02,21,04,1.60
2017,10,02,21,05,1.60
2017,10,02,21,09,1.60
2017,10,02,21,10,3.20
2017,10,02,21,11,1.60
2017,10,02,21,14,1.60
2017,10,02,21,15,1.60
2017,10,02,21,21,1.60
2017,10,02,21,22,3.20
2017,10,02,21,23,1.60
2017,10,02,21,24,1.60
2017,10,02,21,25,1.60
2017,10,02,21,29,1.60
2017,10,02,21,32,1.60
2017,10,02,21,33,4.80
2017,10,02,21,34,3.20
2017,10,02,21,35,3.20
2017,10,02,21,36,1.60
2017,10,02,21,37,1.60
2017,10,02,21,39,6.40
2017,10,02,21,40,6.40
2017,10,02,21,41,3.20
2017,10,02,21,42,1.60
2017,10,02,21,43,3.20
2017,10,02,21,44,1.60
2017,10,02,21,47,4.80
2017,10,02,21,48,1.60
2017,10,02,21,50,1.60
2017,10,02,21,53,1.60
2017,10,02,21,54,4.80
2017,10,02,21,55,1.60
2017,10,02,21,59,1.60
2017,10,02,22,00,1.60